This is the latest recevied weather packets stored in our database for station/object K2CCS. If no packets are shown the sender has not sent any weather packets the latest 10 day(s).
| Time | Temp. | Humidity | Pressure | Rain* | Wind** | Luminosity | Snow |
|---|---|---|---|---|---|---|---|
| 1777126768 | 9.44° C | 55% | 1021.5 hPa | 0 mm | - | 227 W/m² | - |
| 1777126465 | 9.44° C | 55% | 1021.5 hPa | 0 mm | - | 242 W/m² | - |
| 1777126160 | 9.44° C | 55% | 1021.6 hPa | 0 mm | - | 226 W/m² | - |
| 1777125856 | 8.89° C | 55% | 1021.6 hPa | 0 mm | - | 219 W/m² | - |
| 1777125553 | 8.89° C | 56% | 1021.5 hPa | 0 mm | - | 195 W/m² | - |
| 1777125249 | 8.33° C | 56% | 1021.5 hPa | 0 mm | - | 193 W/m² | - |
| 1777124948 | 8.33° C | 56% | 1021.7 hPa | 0 mm | - | 222 W/m² | - |
| 1777124646 | 8.89° C | 55% | 1021.7 hPa | 0 mm | - | 291 W/m² | - |
| 1777124341 | 8.89° C | 55% | 1021.6 hPa | 0 mm | - | 243 W/m² | - |
| 1777124038 | 8.33° C | 56% | 1021.7 hPa | 0 mm | - | 442 W/m² | - |
| 1777123734 | 7.78° C | 56% | 1021.9 hPa | 0 mm | - | 221 W/m² | - |
| 1777123430 | 8.33° C | 56% | 1021.8 hPa | 0 mm | - | 142 W/m² | - |
| 1777123127 | 7.78° C | 56% | 1021.9 hPa | 0 mm | - | 195 W/m² | - |
| 1777122823 | 7.78° C | 57% | 1021.7 hPa | 0 mm | - | 161 W/m² | - |
| 1777122519 | 7.22° C | 59% | 1021.8 hPa | 0 mm | - | 255 W/m² | - |
| 1777122216 | 7.22° C | 59% | 1021.8 hPa | 0 mm | - | 117 W/m² | - |
| 1777121911 | 7.22° C | 58% | 1021.8 hPa | 0 mm | - | 152 W/m² | - |
| 1777121608 | 6.67° C | 58% | 1021.7 hPa | 0 mm | - | 155 W/m² | - |
| 1777121305 | 6.67° C | 58% | 1022.1 hPa | 0 mm | - | 124 W/m² | - |
| 1777121002 | 6.11° C | 60% | 1021.8 hPa | 0 mm | - | 131 W/m² | - |
| 1777120698 | 6.67° C | 59% | 1022 hPa | 0 mm | - | 69 W/m² | - |
| 1777120393 | 6.67° C | 60% | 1021.8 hPa | 0 mm | - | 65 W/m² | - |
| 1777120089 | 6.11° C | 60% | 1021.7 hPa | 0 mm | - | 117 W/m² | - |
| 1777119784 | 6.67° C | 60% | 1022 hPa | 0 mm | - | 96 W/m² | - |
| 1777119481 | 6.11° C | 62% | 1022.1 hPa | 0 mm | - | 133 W/m² | - |
* Rain latest hour (hover to see other rain measurements)
** Current wind speed in m/s (hover to see current wind gust speed)